Date String (YYYY-MM-DD hh:mm:ss) UTC,Instrument flags,Ambient pressure (hPa),Sample flow (lpm),Bypass flow (lpm),Sample temperature (°C),Ambient temperature (°C),ASC tube jacket temperature (°C),LED temperature (°C),Box temperature (°C),Sample RH (%),Span deviation,Mass concentration (μg/m³),Mass concentration (μg/m³),Mass concentration (μg/m³)
DateTimeUTC,F1_M11,P_M11,Q1_M11,Q2_M11,T1_M11,T2_M11,T3_M11,T4_M11,T5_M11,U1_M11,ZSPAN_M11,X0_M11,X2_M11,X1_M11
2022-11-05 22:00:00,,0809.9,5.01,0.00,25.0,23.8,00.0,33.7,26.9,13.6,0000.0,0001.57,0000.47,0000.29
2022-11-05 22:01:00,,0809.7,5.00,0.00,25.0,23.8,00.0,33.7,26.9,13.7,0000.0,0002.35,0000.50,0000.29
2022-11-05 22:02:00,,0809.6,5.01,0.00,25.0,23.8,00.0,33.8,26.9,13.8,0000.0,0003.77,0000.51,0000.30
2022-11-05 22:03:00,,0809.7,5.00,0.00,25.0,23.7,00.0,33.8,26.9,13.8,0000.0,0003.97,0000.50,0000.31
2022-11-05 22:04:00,,0809.9,4.99,0.00,25.0,23.7,00.0,33.8,26.9,13.7,0000.0,0004.05,0000.54,0000.31
2022-11-05 22:05:00,,0809.9,4.99,0.00,25.0,23.7,00.0,33.8,26.9,13.9,0000.0,0004.36,0000.54,0000.31
2022-11-05 22:06:00,,0809.9,5.00,0.00,25.0,23.7,00.0,33.8,26.9,13.8,0000.0,0004.71,0000.55,0000.31
2022-11-05 22:07:00,,0810.1,5.01,0.00,25.0,23.7,00.0,33.8,26.9,13.8,0000.0,0004.77,0000.61,0000.32
2022-11-05 22:08:00,,0810.0,5.00,0.00,25.0,23.7,00.0,33.8,26.9,13.8,0000.0,0004.73,0000.59,0000.32
2022-11-05 22:09:00,,0810.1,4.98,0.00,25.0,23.7,00.0,33.8,26.9,13.8,0000.0,0004.91,0000.61,0000.31
2022-11-05 22:10:00,,0810.1,5.00,0.00,25.0,23.8,00.0,33.8,26.9,13.6,0000.0,0005.12,0000.62,0000.32
2022-11-05 22:11:00,,0809.9,5.01,0.00,25.0,23.8,00.0,33.8,26.9,13.6,0000.0,0005.22,0000.59,0000.32
2022-11-05 22:12:00,,0810.0,4.98,0.00,25.0,23.9,00.0,33.8,27.0,13.7,0000.0,0004.99,0000.57,0000.32
2022-11-05 22:13:00,,0810.2,5.01,0.00,25.1,24.0,00.0,33.8,27.0,13.8,0000.0,0003.76,0000.56,0000.31
2022-11-05 22:14:00,,0810.1,5.00,0.00,25.1,24.0,00.0,33.8,27.0,13.8,0000.0,0005.02,0000.54,0000.31
2022-11-05 22:15:00,,0810.0,5.00,0.00,25.1,24.0,00.0,33.8,27.0,13.7,0000.0,0005.71,0000.53,0000.31
2022-11-05 22:16:00,,0810.0,5.00,0.00,25.1,24.1,00.0,33.8,27.1,13.8,0000.0,0005.42,0000.53,0000.31
2022-11-05 22:17:00,,0809.9,5.00,0.00,25.1,24.1,00.0,33.8,27.1,13.7,0000.0,0005.05,0000.57,0000.31
2022-11-05 22:18:00,,0809.9,5.00,0.00,25.1,24.1,00.0,33.9,27.1,13.6,0000.0,0005.00,0000.52,0000.30
2022-11-05 22:19:00,,0809.9,4.99,0.00,25.1,24.0,00.0,33.9,27.1,13.6,0000.0,0005.11,0000.54,0000.30
2022-11-05 22:20:00,,0810.0,5.01,0.00,25.2,24.0,00.0,33.9,27.1,13.8,0000.0,0005.34,0000.54,0000.31
2022-11-05 22:21:00,,0810.1,5.01,0.00,25.2,24.0,00.0,33.9,27.1,13.8,0000.0,0005.14,0000.52,0000.31
2022-11-05 22:22:00,,0810.2,4.99,0.00,25.2,24.1,00.0,33.9,27.1,13.8,0000.0,0005.03,0000.55,0000.30
2022-11-05 22:23:00,,0810.1,4.99,0.00,25.2,24.1,00.0,33.9,27.1,13.8,0000.0,0004.48,0000.54,0000.30
2022-11-05 22:24:00,,0810.0,5.00,0.00,25.2,24.2,00.0,33.9,27.2,13.7,0000.0,0004.96,0000.56,0000.30
2022-11-05 22:25:00,,0809.9,5.00,0.00,25.2,24.2,00.0,33.9,27.2,13.7,0000.0,0003.06,0000.61,0000.31
2022-11-05 22:26:00,,0809.9,5.00,0.00,25.2,24.2,00.0,33.9,27.2,13.7,0000.0,0002.45,0000.60,0000.30
2022-11-05 22:27:00,,0809.9,5.00,0.00,25.3,24.2,00.0,33.9,27.2,13.8,0000.0,0002.52,0000.63,0000.30
2022-11-05 22:28:00,,0809.9,5.00,0.00,25.3,24.1,00.0,34.0,27.2,13.8,0000.0,0002.46,0000.65,0000.30
2022-11-05 22:29:00,,0810.1,5.00,0.00,25.3,24.0,00.0,34.0,27.2,14.1,0000.0,0002.43,0000.67,0000.30
2022-11-05 22:30:00,,0810.0,5.02,0.00,25.3,24.0,00.0,34.0,27.2,13.7,0000.0,0002.43,0000.69,0000.29
2022-11-05 22:31:00,,0809.9,5.00,0.00,25.3,24.0,00.0,34.0,27.2,13.7,0000.0,0002.03,0000.68,0000.29
2022-11-05 22:32:00,,0809.9,4.98,0.00,25.3,24.0,00.0,34.0,27.2,13.6,0000.0,0002.10,0000.70,0000.29
2022-11-05 22:33:00,,0809.9,5.01,0.00,25.3,24.0,00.0,34.0,27.2,13.7,0000.0,0002.02,0000.67,0000.31
2022-11-05 22:34:00,,0809.8,5.01,0.00,25.3,24.0,00.0,34.0,27.2,13.8,0000.0,0002.02,0000.70,0000.31
2022-11-05 22:35:00,,0809.9,5.00,0.00,25.3,24.0,00.0,34.0,27.2,13.9,0000.0,0001.59,0000.69,0000.31
2022-11-05 22:36:00,,0810.0,4.98,0.00,25.3,24.1,00.0,34.0,27.2,13.9,0000.0,0001.57,0000.65,0000.32
2022-11-05 22:37:00,,0810.3,5.01,0.00,25.3,24.1,00.0,34.0,27.2,13.8,0000.0,0001.58,0000.63,0000.32
2022-11-05 22:38:00,,0810.2,5.00,0.00,25.3,24.2,00.0,34.0,27.3,14.1,0000.0,0001.79,0000.62,0000.32
2022-11-05 22:39:00,,0810.1,5.01,0.00,25.3,24.2,00.0,34.0,27.3,13.8,0000.0,0001.68,0000.57,0000.32
2022-11-05 22:40:00,,0810.1,5.00,0.00,25.3,24.2,00.0,34.0,27.3,13.7,0000.0,0001.64,0000.55,0000.33
2022-11-05 22:41:00,,0810.2,5.01,0.00,25.3,24.2,00.0,34.1,27.3,13.7,0000.0,0001.53,0000.52,0000.33
2022-11-05 22:42:00,,0810.2,5.00,0.00,25.4,24.2,00.0,34.1,27.3,13.7,0000.0,0001.52,0000.51,0000.33
2022-11-05 22:43:00,,0810.2,5.00,0.00,25.4,24.3,00.0,34.1,27.3,13.7,0000.0,0001.52,0000.49,0000.32
2022-11-05 22:44:00,,0810.2,5.00,0.00,25.4,24.3,00.0,34.1,27.3,13.6,0000.0,0002.65,0000.51,0000.31
2022-11-05 22:45:00,,0810.2,4.99,0.00,25.4,24.3,00.0,34.1,27.4,13.6,0000.0,0002.56,0000.49,0000.31
2022-11-05 22:46:00,,0810.2,5.01,0.00,25.4,24.4,00.0,34.1,27.4,13.9,0000.0,0002.59,0000.48,0000.31
2022-11-05 22:47:00,,0810.0,5.01,0.00,25.4,24.3,00.0,34.1,27.4,13.6,0000.0,0002.50,0000.48,0000.30
2022-11-05 22:48:00,,0810.0,5.00,0.00,25.4,24.3,00.0,34.1,27.4,13.8,0000.0,0003.10,0000.49,0000.30
2022-11-05 22:49:00,,0809.9,5.00,0.00,25.4,24.2,00.0,34.1,27.3,13.7,0000.0,0004.59,0000.47,0000.29
2022-11-05 22:50:00,,0809.9,5.00,0.00,25.4,24.1,00.0,34.1,27.3,13.9,0000.0,0005.34,0000.47,0000.29
2022-11-05 22:51:00,,0809.9,5.00,0.00,25.4,24.1,00.0,34.1,27.3,13.8,0000.0,0005.56,0000.48,0000.29
2022-11-05 22:52:00,,0810.1,5.01,0.00,25.4,24.1,00.0,34.1,27.3,13.7,0000.0,0005.54,0000.47,0000.29
2022-11-05 22:53:00,,0810.1,5.00,0.00,25.4,24.0,00.0,34.1,27.3,13.6,0000.0,0005.53,0000.47,0000.30
2022-11-05 22:54:00,,0809.9,4.99,0.00,25.4,24.1,00.0,34.1,27.3,13.2,0000.0,0005.36,0000.48,0000.30
2022-11-05 22:55:00,,0809.9,5.00,0.00,25.4,24.1,00.0,34.2,27.3,13.3,0000.0,0004.28,0000.45,0000.30
2022-11-05 22:56:00,,0809.9,5.00,0.00,25.4,24.1,00.0,34.2,27.3,13.2,0000.0,0004.71,0000.47,0000.30
2022-11-05 22:57:00,,0810.0,5.00,0.00,25.4,24.0,00.0,34.2,27.3,13.3,0000.0,0004.78,0000.47,0000.29
2022-11-05 22:58:00,,0810.1,4.99,0.00,25.4,24.0,00.0,34.2,27.3,13.3,0000.0,0004.83,0000.48,0000.30
2022-11-05 22:59:00,,0810.1,5.01,0.00,25.4,24.0,00.0,34.2,27.3,13.3,0000.0,0004.06,0000.47,0000.30
